Regional Weather Roundup
Issued by NWS

Home | Current Version | Previous Version | Graphics & Text | Print | Product List | Glossary Off
Versions: 1 2 3 4 5 6 7 8 9 10 11 12 13 14 15 16 17 18 19 20 21 22 23 24 25 26 27 28 29 30 31 32 33 34 35 36 37 38 39 40 41 42 43 44 45 46 47 48 49 50

000
ASUS43 KLSX 200407
RWRMO

WEATHER SUMMARY FOR MISSOURI
NATIONAL WEATHER SERVICE SPRINGFIELD MO
1000 PM CST MON FEB 19 2018

NOTE: "FAIR" INDICATES FEW OR NO CLOUDS BELOW 12,000 FEET WITH NO
       SIGNIFICANT WEATHER AND/OR OBSTRUCTIONS TO VISIBILITY.
       CURRENT SKY AND/OR WEATHER CONDITIONS ARE NOT AVAILABLE FOR
       CHILLICOTHE AND FARMINGTON.

MOZ001>031-035>038-043-044-053-054-200500-
...NORTHERN AND WESTERN MISSOURI...

CITY           SKY/WX    TMP DP  RH WIND       PRES   REMARKS
KANSAS CTY INT CLOUDY    30  28  92 N7        29.82F FOG     WCI  23
KANSAS C DTWN  CLOUDY    33  29  85 N7        29.82F WCI  27
LEE`S SUMMIT   CLOUDY    33  32  96 NE8       29.82S FOG     WCI  26
ST JOSEPH      CLOUDY    28  28 100 N6        29.85F FOG     WCI  22
CHILLICOTHE      N/A     35  33  92 NW5       29.84S
KIRKSVILLE     LGT RAIN  39  39 100 NW6       29.82R FOG

$$
MOZ066>068-077>081-088>096-101>105-200500-
...SOUTHWEST MISSOURI...

CITY           SKY/WX    TMP DP  RH WIND       PRES   REMARKS
SPRINGFIELD    CLOUDY    65  58  78 S16       29.81R
JOPLIN         CLOUDY    55  55 100 W8        29.79R

$$
MOZ032>034-039>042-045>050-055>058-069>072-200500-
...CENTRAL MISSOURI...

CITY           SKY/WX    TMP DP  RH WIND       PRES   REMARKS
COLUMBIA       LGT RAIN  62  60  93 S17G28    29.81R
JEFFERSON CITY RAIN      64  59  83 SE12      29.81R
ROLLA          CLOUDY    64  57  78 S12G24    29.86F
SEDALIA        HVY RAIN  41  41 100 NW8       29.83S FOG
WHITEMAN AFB   TSTM      37  36  93 N6        29.78S VSB 1
WARRENSBURG    DRIZZLE   34  34 100 N5        29.82S WCI  30
OSAGE BEACH    LGT RAIN  63  59  88 S10       29.82F

$$
MOZ051-052-059>065-200500-
...EAST CENTRAL MISSOURI...

CITY           SKY/WX    TMP DP  RH WIND       PRES   REMARKS
ST LOUIS INTL  LGT RAIN  68  58  70 S17G28    29.88R
SPIRIT OF STL  LGT RAIN  68  59  73 S12G23    29.88R
ST CHARLES     CLOUDY    66  58  75 SW9       29.89R

$$
MOZ072>076-082>087-097>100-106>115-200500-
...SOUTH CENTRAL AND SOUTHEAST MISSOURI...

CITY           SKY/WX    TMP DP  RH WIND       PRES   REMARKS
CAPE GIRARDEAU FAIR      64  55  72 SE8       29.99S
FARMINGTON     CLOUDY    65  60  84 S16G22    29.95S
POPLAR BLUFF   FAIR      64  57  78 S7        29.97S
WEST PLAINS    MOCLDY    66  58  75 S14       29.92S

$$


USA.gov is the U.S. government's official web portal to all federal, state and local government web resources and services.